FW5258 Weather Reports


time (UTC)temp
C
wind
direction
speed
KPH
gust
KPH
rain 1hr
cm
rain 24hr
cm
rain mn
cm
humidity
%
barometer
mb
20260504200814 26 243 14.5 25.7 0.00 0.30 0.13 46 999.4
20260504200314 26 245 14.5 25.7 0.00 0.30 0.13 47 999.5
20260504195811 26 240 12.9 24.1 0.00 0.30 0.13 47 999.7
20260504195309 26 275 11.3 20.9 0.00 0.30 0.13 46 999.7
20260504194806 26 220 12.9 24.1 0.00 0.30 0.13 47 999.9
20260504194305 26 232 14.5 24.1 0.00 0.30 0.13 49 999.8
20260504194029 26 240 14.5 24.1 0.00 0.30 0.13 50 999.9
20260504193258 26 234 12.9 24.1 0.00 0.30 0.13 48 999.9
20260504192753 26 242 11.3 20.9 0.00 0.30 0.13 47 999.9
20260504192247 26 188 9.7 20.9 0.00 0.30 0.13 46 999.9
20260504191740 26 242 9.7 20.9 0.00 0.30 0.13 49 999.9
20260504191233 26 259 11.3 20.9 0.00 0.30 0.13 50 1000.0
20260504190728 26 200 11.3 17.7 0.00 0.30 0.13 48 1000.1
20260504190450 25 246 11.3 19.3 0.00 0.30 0.13 50 1000.0
20260504185716 25 223 11.3 19.3 0.00 0.30 0.13 50 1000.1
20260504185209 25 260 9.7 17.7 0.00 0.30 0.13 53 1000.0
20260504184936 25 257 12.9 20.9 0.00 0.30 0.13 50 1000.1
20260504184158 25 243 12.9 24.1 0.00 0.30 0.13 50 1000.2
20260504183652 25 227 11.3 24.1 0.00 0.30 0.13 49 1000.3
20260504183146 25 234 11.3 20.9 0.00 0.30 0.13 53 1000.3
20260504182641 25 214 12.9 25.7 0.00 0.30 0.13 50 1000.2
20260504182134 25 242 14.5 29.0 0.00 0.30 0.13 50 1000.2
20260504181627 25 217 14.5 29.0 0.00 0.30 0.13 50 1000.2
20260504181122 24 256 14.5 22.5 0.00 0.30 0.13 52 1000.1
20260504180616 24 248 14.5 22.5 0.00 0.30 0.13 50 1000.2
20260504180110 24 228 14.5 29.0 0.00 0.30 0.13 52 1000.2
20260504175605 24 250 16.1 29.0 0.00 0.30 0.13 53 1000.4
20260504175058 24 265 17.7 25.7 0.00 0.30 0.13 50 1000.3
20260504174551 23 257 17.7 25.7 0.00 0.30 0.13 52 1000.3
20260504174046 23 270 16.1 27.4 0.00 0.30 0.13 54 1000.2
20260504173539 23 259 12.9 27.4 0.00 0.30 0.13 52 1000.3
20260504173034 23 248 16.1 25.7 0.00 0.30 0.13 52 1000.3
20260504172528 23 244 16.1 25.7 0.00 0.30 0.13 50 1000.3
20260504172022 24 250 12.9 24.1 0.00 0.30 0.13 53 1000.4
20260504171516 23 208 11.3 20.9 0.00 0.30 0.13 54 1000.5
20260504171010 23 185 12.9 24.1 0.00 0.30 0.13 52 1000.5
20260504170504 23 217 14.5 24.1 0.00 0.30 0.13 54 1000.7
20260504160356 22 250 12.9 24.1 0.00 0.30 0.13 55 1000.8
20260504150856 21 236 12.9 22.5 0.00 0.30 0.13 59 1001.0
20260504150618 20 250 14.5 27.4 0.00 0.30 0.13 61 1001.1
20260504140846 19 183 8.0 20.9 0.00 0.30 0.13 63 1001.4
20260504140346 19 171 9.7 22.5 0.00 0.30 0.13 64 1001.5
20260504140105 18 236 12.9 25.7 0.00 0.30 0.13 63 1001.5
20260504130341 16 206 4.8 14.5 0.00 0.30 0.13 76 1001.7
20260504120317 12 177 0.0 0.0 0.00 0.30 0.13 80 1001.8
20260504110240 13 176 3.2 6.4 0.00 0.30 0.13 77 1001.7
20260504100127 13 180 6.4 12.9 0.00 0.30 0.13 74 1002.3
20260504081928 12 177 4.8 14.5 0.00 0.30 0.13 82 1003.9
20260504081421 12 179 1.6 11.3 0.00 0.30 0.13 82 1004.0
20260504081354 12 175 0.0 3.2 0.00 0.30 0.13 84 1004.0
20260504080410 12 175 0.0 4.8 0.00 0.30 0.13 83 1004.0
20260504070256 12 169 1.6 6.4 0.10 0.30 0.13 87 1005.2
20260504060144 12 355 1.6 6.4 0.03 0.20 0.03 85 1005.1
20260504050122 14 232 3.2 6.4 0.18 0.18 0.00 77 1005.9
20260504045621 14 232 3.2 6.4 0.15 0.15 0.15 75 1006.2
20260504045120 15 196 3.2 6.4 0.15 0.15 0.15 75 1005.7
20260504045055 15 204 3.2 8.0 0.00 0.00 0.00 73 1006.3
20260504044714 15 199 3.2 6.4 0.03 0.03 0.05 70 1006.0
20260504043620 15 172 3.2 8.0 0.00 0.00 0.00 71 1005.9
20260504043120 15 173 1.6 9.7 0.00 0.00 0.00 69 1006.2
20260504042619 15 173 3.2 9.7 0.00 0.00 0.00 69 1005.9
20260504042608 15 177 1.6 9.7 0.00 0.00 0.00 66 1006.1
20260504041620 15 173 0.0 3.2 0.00 0.00 0.00 67 1006.1
20260504041113 15 173 1.6 8.0 0.00 0.00 0.00 67 1006.0
20260504040606 15 173 4.8 11.3 0.00 0.00 0.00 66 1006.1
20260504035555 15 184 1.6 9.7 0.00 0.00 0.00 66 1006.1
20260504035049 15 214 1.6 4.8 0.00 0.00 0.00 65 1006.1
20260504034544 15 290 0.0 4.8 0.00 0.00 0.00 68 1006.2
20260504034038 15 296 0.0 0.0 0.00 0.00 0.00 65 1006.3
20260504033531 15 296 0.0 0.0 0.00 0.00 0.00 64 1006.4
20260504033252 15 296 0.0 0.0 0.00 0.00 0.00 61 1006.4
20260504032519 15 296 0.0 0.0 0.00 0.00 0.00 61 1006.4
20260504032241 15 296 0.0 0.0 0.00 0.00 0.00 63 1006.5
20260504031508 15 296 0.0 0.0 0.00 0.00 0.00 63 1006.5
20260504031002 15 296 0.0 0.0 0.00 0.00 0.00 64 1006.4
20260504030455 15 296 0.0 0.0 0.00 0.00 0.00 64 1006.4
20260504025948 15 296 0.0 0.0 0.00 0.00 0.00 65 1006.3
20260504025442 15 296 0.0 0.0 0.00 0.00 0.00 64 1006.3
20260504024936 16 296 0.0 0.0 0.00 0.00 0.00 64 1006.4
20260504024429 16 296 0.0 0.0 0.00 0.00 0.00 65 1006.4
20260504023923 16 296 0.0 0.0 0.00 0.00 0.00 64 1006.4
20260504023416 16 296 0.0 0.0 0.00 0.00 0.00 62 1006.5
20260504022910 17 296 0.0 0.0 0.00 0.00 0.00 61 1006.5
20260504022406 17 296 0.0 0.0 0.00 0.00 0.00 60 1006.4
20260504021858 17 296 0.0 0.0 0.00 0.00 0.00 59 1006.4
20260504021352 17 296 0.0 0.0 0.00 0.00 0.00 56 1006.3
20260504020847 17 294 0.0 0.0 0.00 0.00 0.00 54 1006.4
20260504020340 17 295 0.0 0.0 0.00 0.00 0.00 54 1006.4
20260504015835 18 295 0.0 0.0 0.00 0.00 0.00 55 1006.5
20260504015329 18 295 0.0 0.0 0.00 0.00 0.00 56 1006.5
20260504015043 18 295 0.0 0.0 0.00 0.00 0.00 54 1006.5
20260504014802 18 295 0.0 0.0 0.00 0.00 0.00 54 1006.7
20260504013811 18 295 0.0 0.0 0.00 0.00 0.00 53 1006.8
20260504013527 18 296 0.0 0.0 0.00 0.00 0.00 52 1006.7
20260504013016 19 296 0.0 0.0 0.00 0.00 0.00 52 1006.4
20260504012254 19 296 0.0 0.0 0.00 0.00 0.00 51 1006.3
20260504011748 19 296 0.0 0.0 0.00 0.00 0.00 50 1006.3
20260504011242 19 296 0.0 0.0 0.00 0.00 0.00 50 1006.3
20260504010957 20 295 0.0 0.0 0.00 0.00 0.00 50 1006.5
20260504010458 20 295 0.0 0.0 0.00 0.00 0.00 50 1006.4
20260504005722 20 271 0.0 1.6 0.00 0.00 0.00 51 1006.7
20260504005447 20 267 1.6 4.8 0.00 0.00 0.00 50 1006.5
20260504004711 20 268 1.6 4.8 0.00 0.00 0.00 49 1006.5
20260504004209 20 269 3.2 4.8 0.00 0.00 0.00 50 1006.7
20260504003709 20 271 3.2 4.8 0.00 0.00 0.00 50 1006.8
20260504003207 20 269 3.2 6.4 0.00 0.00 0.00 49 1006.8
20260504002705 21 271 3.2 6.4 0.00 0.00 0.00 50 1006.8
20260504002413 21 287 1.6 4.8 0.00 0.00 0.00 47 1006.5
20260504002258 21 273 1.6 4.8 0.00 0.00 0.00 50 1006.8
20260504001203 21 289 3.2 6.4 0.00 0.00 0.00 47 1006.8
20260504000703 21 293 4.8 8.0 0.00 0.00 0.00 46 1006.9
20260504000204 21 295 6.4 11.3 0.00 0.00 0.00 46 1007.0
20260503235702 21 294 6.4 11.3 0.00 0.00 0.00 45 1007.0
20260503235201 21 296 6.4 11.3 0.00 0.00 0.00 47 1007.0
20260503234701 21 291 6.4 11.3 0.00 0.00 0.00 47 1006.9
20260503234201 21 287 4.8 8.0 0.00 0.00 0.00 44 1006.7
20260503233925 21 299 6.4 11.3 0.00 0.00 0.00 43 1006.5
20260503233206 21 299 9.7 16.1 0.00 0.00 0.00 44 1007.0
20260503232700 21 304 9.7 16.1 0.00 0.00 0.00 43 1007.1
20260503232201 21 287 8.0 16.1 0.00 0.00 0.00 44 1007.2
20260503231701 22 289 4.8 16.1 0.00 0.00 0.00 44 1007.1
20260503231155 22 304 6.4 14.5 0.00 0.00 0.00 44 1007.0
20260503230650 22 309 9.7 19.3 0.00 0.00 0.00 43 1007.1
20260503230143 22 286 9.7 19.3 0.00 0.00 0.00 44 1007.1
20260503225638 22 300 9.7 16.1 0.00 0.00 0.00 42 1006.9
20260503225132 22 281 9.7 16.1 0.00 0.00 0.00 43 1006.9
20260503224626 22 306 4.8 20.9 0.00 0.00 0.00 42 1006.8
20260503224119 22 286 0.0 20.9 0.00 0.00 0.00 42 1006.9
20260503223619 22 292 3.2 12.9 0.00 0.00 0.00 42 1007.1
20260503223342 22 275 8.0 17.7 0.00 0.00 0.00 43 1006.9
20260503222619 22 271 12.9 22.5 0.00 0.00 0.00 40 1006.9
20260503222119 22 290 14.5 22.5 0.00 0.00 0.00 41 1007.1
20260503221619 22 296 12.9 19.3 0.00 0.00 0.00 40 1007.1
20260503221117 22 262 12.9 19.3 0.00 0.00 0.00 39 1007.2
20260503220614 22 316 12.9 19.3 0.00 0.00 0.00 42 1007.0
20260503220114 22 289 12.9 19.3 0.00 0.00 0.00 42 1007.1
20260503215615 22 273 12.9 19.3 0.00 0.00 0.00 44 1007.2
20260503215116 22 261 9.7 17.7 0.00 0.00 0.00 47 1007.3
20260503214613 22 254 9.7 19.3 0.00 0.00 0.00 47 1007.1
20260503214111 22 242 11.3 19.3 0.00 0.00 0.00 44 1007.1
20260503213835 22 260 12.9 19.3 0.00 0.00 0.00 45 1007.5
20260503213112 22 259 12.9 19.3 0.00 0.00 0.00 47 1007.5
20260503212610 22 252 14.5 20.9 0.00 0.00 0.00 48 1007.3
20260503212108 21 244 16.1 25.7 0.00 0.00 0.00 48 1007.3
20260503211609 21 273 17.7 25.7 0.00 0.00 0.00 45 1007.2
20260503211108 21 241 16.1 27.4 0.00 0.00 0.00 45 1007.5
20260503210608 21 273 14.5 27.4 0.00 0.00 0.00 45 1007.5
20260503210108 21 250 12.9 19.3 0.00 0.00 0.00 48 1007.4
20260503205836 21 252 14.5 25.7 0.00 0.00 0.00 46 1007.6
20260503205108 21 254 14.5 25.7 0.00 0.00 0.00 45 1007.4
20260503204826 21 243 12.9 19.3 0.00 0.00 0.00 46 1007.3
20260503204109 21 244 14.5 20.9 0.00 0.00 0.00 46 1007.6
20260503203609 21 236 14.5 25.7 0.00 0.00 0.00 44 1008.0
20260503203109 21 279 14.5 25.7 0.00 0.00 0.00 44 1007.9
20260503202610 21 277 16.1 25.7 0.00 0.00 0.00 43 1007.8
20260503202108 21 254 16.1 25.7 0.00 0.00 0.00 40 1007.8
20260503201609 22 283 14.5 22.5 0.00 0.00 0.00 44 1008.1
20260503201109 22 263 16.1 27.4 0.00 0.00 0.00 44 1008.1